Time,TemperatureF,DewpointF,PressureIn,WindDirection,WindDirectionDegrees,WindSpeedMPH,WindSpeedGustMPH,Humidity,HourlyPrecipIn,Conditions,Clouds,dailyrainin,SoftwareType,DateUTC
2013-02-26 00:05:00,15.4,8.9,30.03,NNW,328,0.0,0.0,75,0.00,,---,0.00,VWS V14.01,2013-02-26 06:05:00,
2013-02-26 00:10:00,15.4,8.9,30.03,NNW,328,0.0,0.0,75,0.00,,---,0.00,VWS V14.01,2013-02-26 06:10:00,
2013-02-26 00:16:00,15.8,9.3,30.03,NNW,328,0.0,0.0,75,0.00,,---,0.00,VWS V14.01,2013-02-26 06:16:00,
2013-02-26 00:21:00,15.8,9.3,30.03,NNW,330,2.7,3.6,75,0.00,,---,0.00,VWS V14.01,2013-02-26 06:21:00,
2013-02-26 00:27:00,16.2,9.6,30.03,NNW,330,0.0,0.0,75,0.00,,---,0.00,VWS V14.01,2013-02-26 06:27:00,
2013-02-26 00:33:00,16.5,10.3,30.03,NNW,330,0.0,0.0,76,0.00,,---,0.00,VWS V14.01,2013-02-26 06:33:00,
2013-02-26 00:38:00,16.7,10.8,30.03,NNW,330,0.0,0.0,77,0.00,,---,0.00,VWS V14.01,2013-02-26 06:38:00,
2013-02-26 00:44:00,16.7,10.8,30.06,NNW,330,0.0,0.0,77,0.00,,---,0.00,VWS V14.01,2013-02-26 06:44:00,
2013-02-26 00:49:00,16.9,10.9,30.06,NNW,330,0.0,0.0,77,0.00,,---,0.00,VWS V14.01,2013-02-26 06:49:00,
2013-02-26 00:55:00,17.1,11.1,30.06,NNW,330,0.0,0.0,77,0.00,,---,0.00,VWS V14.01,2013-02-26 06:55:00,
2013-02-26 01:00:00,17.2,11.6,30.06,NNW,330,0.0,0.0,78,0.00,,---,0.00,VWS V14.01,2013-02-26 07:00:00,
2013-02-26 01:06:00,17.4,12.0,30.06,NNW,330,0.0,0.0,79,0.00,,---,0.00,VWS V14.01,2013-02-26 07:06:00,
2013-02-26 01:12:00,17.4,12.6,30.06,NNE,20,0.0,0.0,81,0.00,,---,0.00,VWS V14.01,2013-02-26 07:12:00,
2013-02-26 01:17:00,17.4,12.6,30.06,NNE,27,0.0,0.0,81,0.00,,---,0.00,VWS V14.01,2013-02-26 07:17:00,
2013-02-26 01:23:00,17.4,12.9,30.06,NE,38,3.1,4.0,82,0.00,,---,0.00,VWS V14.01,2013-02-26 07:23:00,
2013-02-26 01:28:00,17.4,12.9,30.06,NE,39,3.1,4.0,82,0.00,,---,0.00,VWS V14.01,2013-02-26 07:28:00,
2013-02-26 01:33:00,17.2,13.0,30.03,NNE,13,0.0,0.0,83,0.00,,---,0.00,VWS V14.01,2013-02-26 07:33:00,
2013-02-26 01:38:00,17.2,13.0,30.03,North,353,3.1,4.0,83,0.00,,---,0.00,VWS V14.01,2013-02-26 07:38:00,
2013-02-26 01:44:00,17.1,12.8,30.03,NE,42,3.6,3.6,83,0.00,,---,0.00,VWS V14.01,2013-02-26 07:44:00,
2013-02-26 01:49:00,16.9,12.9,30.03,NE,34,2.2,3.1,84,0.00,,---,0.00,VWS V14.01,2013-02-26 07:49:00,
2013-02-26 01:55:00,16.7,12.7,30.03,NNE,32,4.0,5.4,84,0.00,,---,0.00,VWS V14.01,2013-02-26 07:55:00,
2013-02-26 02:00:00,16.3,12.6,30.06,NE,45,4.0,4.9,85,0.00,,---,0.00,VWS V14.01,2013-02-26 08:00:00,
2013-02-26 02:05:00,16.0,12.3,30.06,NE,38,0.0,3.1,85,0.00,,---,0.00,VWS V14.01,2013-02-26 08:05:00,
2013-02-26 02:11:00,15.8,12.1,30.06,NE,36,0.0,3.1,85,0.00,,---,0.00,VWS V14.01,2013-02-26 08:11:00,
2013-02-26 02:16:00,15.8,12.4,30.06,NNE,23,0.0,0.0,86,0.00,,---,0.00,VWS V14.01,2013-02-26 08:16:00,
2013-02-26 02:21:00,15.8,12.4,30.06,North,5,3.6,4.0,86,0.00,,---,0.00,VWS V14.01,2013-02-26 08:21:00,
2013-02-26 02:27:00,15.6,12.2,30.06,NNE,31,4.0,4.0,86,0.00,,---,0.00,VWS V14.01,2013-02-26 08:27:00,
2013-02-26 02:32:00,15.6,12.2,30.03,North,0,0.0,0.0,86,0.00,,---,0.00,VWS V14.01,2013-02-26 08:32:00,
2013-02-26 02:37:00,15.8,12.4,30.03,NNE,31,2.7,4.0,86,0.00,,---,0.00,VWS V14.01,2013-02-26 08:37:00,
2013-02-26 02:42:00,15.4,12.0,30.03,NNE,27,4.0,4.0,86,0.00,,---,0.00,VWS V14.01,2013-02-26 08:42:00,
2013-02-26 02:48:00,15.3,11.8,30.03,NNE,15,4.0,4.9,86,0.00,,---,0.00,VWS V14.01,2013-02-26 08:48:00,
2013-02-26 02:53:00,15.3,11.8,30.03,NNE,20,4.0,5.8,86,0.00,,---,0.00,VWS V14.01,2013-02-26 08:53:00,
2013-02-26 02:58:00,15.1,11.7,30.03,NNE,25,3.1,3.1,86,0.00,,---,0.00,VWS V14.01,2013-02-26 08:58:00,
2013-02-26 03:04:00,15.1,11.7,30.03,NNE,15,0.0,0.0,86,0.00,,---,0.00,VWS V14.01,2013-02-26 09:04:00,
2013-02-26 03:09:00,15.3,11.8,30.03,NNE,16,0.0,3.6,86,0.00,,---,0.00,VWS V14.01,2013-02-26 09:09:00,
2013-02-26 03:14:00,15.3,11.8,30.03,NNW,339,0.0,0.0,86,0.00,,---,0.00,VWS V14.01,2013-02-26 09:14:00,
2013-02-26 03:19:00,15.3,11.6,30.03,NNW,342,0.0,2.7,85,0.00,,---,0.00,VWS V14.01,2013-02-26 09:19:00,
2013-02-26 03:25:00,15.3,11.6,30.03,NNW,342,0.0,3.6,85,0.00,,---,0.00,VWS V14.01,2013-02-26 09:25:00,
2013-02-26 03:30:00,15.1,11.4,30.03,NE,41,3.6,3.6,85,0.00,,---,0.00,VWS V14.01,2013-02-26 09:30:00,
2013-02-26 03:35:00,15.1,11.4,30.03,NNW,332,3.1,3.1,85,0.00,,---,0.00,VWS V14.01,2013-02-26 09:35:00,
2013-02-26 03:40:00,15.1,11.4,30.03,NE,40,3.1,4.0,85,0.00,,---,0.00,VWS V14.01,2013-02-26 09:40:00,
2013-02-26 03:46:00,15.1,11.4,30.03,NW,321,0.0,3.1,85,0.00,,---,0.00,VWS V14.01,2013-02-26 09:46:00,
2013-02-26 03:51:00,15.1,11.4,30.03,NNE,28,3.1,3.1,85,0.00,,---,0.00,VWS V14.01,2013-02-26 09:51:00,
2013-02-26 03:56:00,15.1,11.4,30.03,NNW,327,3.1,3.1,85,0.00,,---,0.00,VWS V14.01,2013-02-26 09:56:00,
2013-02-26 04:01:00,15.1,11.4,30.03,NNW,330,0.0,0.0,85,0.00,,---,0.00,VWS V14.01,2013-02-26 10:01:00,
2013-02-26 04:07:00,15.1,11.4,30.03,NNW,331,0.0,0.0,85,0.00,,---,0.00,VWS V14.01,2013-02-26 10:07:00,
2013-02-26 04:12:00,15.3,11.6,30.03,NNW,331,0.0,0.0,85,0.00,,---,0.00,VWS V14.01,2013-02-26 10:12:00,
2013-02-26 04:18:00,15.3,11.3,30.03,NNW,331,0.0,0.0,84,0.00,,---,0.00,VWS V14.01,2013-02-26 10:18:00,
2013-02-26 04:24:00,15.3,11.3,30.03,North,353,2.2,2.2,84,0.00,,---,0.00,VWS V14.01,2013-02-26 10:24:00,
2013-02-26 04:29:00,15.3,11.3,30.03,North,353,0.0,0.0,84,0.00,,---,0.00,VWS V14.01,2013-02-26 10:29:00,
2013-02-26 04:35:00,15.3,11.3,30.03,North,353,0.0,0.0,84,0.00,,---,0.00,VWS V14.01,2013-02-26 10:35:00,
2013-02-26 04:40:00,15.3,11.3,30.03,North,353,0.0,0.0,84,0.00,,---,0.00,VWS V14.01,2013-02-26 10:40:00,
2013-02-26 04:45:00,15.1,10.9,30.03,North,353,2.7,3.1,83,0.00,,---,0.00,VWS V14.01,2013-02-26 10:45:00,
2013-02-26 04:50:00,15.1,10.9,30.03,North,353,0.0,0.0,83,0.00,,---,0.00,VWS V14.01,2013-02-26 10:50:00,
2013-02-26 04:56:00,15.1,10.9,30.03,North,353,0.0,0.0,83,0.00,,---,0.00,VWS V14.01,2013-02-26 10:56:00,
2013-02-26 05:01:00,15.1,10.9,30.03,NNW,344,0.0,3.1,83,0.00,,---,0.00,VWS V14.01,2013-02-26 11:01:00,
2013-02-26 05:06:00,15.1,10.9,30.03,NNW,341,4.0,4.0,83,0.00,,---,0.00,VWS V14.01,2013-02-26 11:06:00,
2013-02-26 05:11:00,15.1,10.6,30.03,North,0,0.0,4.0,82,0.00,,---,0.00,VWS V14.01,2013-02-26 11:11:00,
2013-02-26 05:16:00,14.9,10.4,30.03,NNW,334,3.6,3.6,82,0.00,,---,0.00,VWS V14.01,2013-02-26 11:16:00,
2013-02-26 05:22:00,14.9,10.4,30.03,North,353,0.0,0.0,82,0.00,,---,0.00,VWS V14.01,2013-02-26 11:22:00,
2013-02-26 05:28:00,14.7,10.2,30.03,NE,40,2.7,3.1,82,0.00,,---,0.00,VWS V14.01,2013-02-26 11:28:00,
2013-02-26 05:34:00,14.5,9.8,30.00,NNW,346,2.7,3.6,81,0.00,,---,0.00,VWS V14.01,2013-02-26 11:34:00,
2013-02-26 05:39:00,14.4,9.6,30.00,North,350,2.7,4.0,81,0.00,,---,0.00,VWS V14.01,2013-02-26 11:39:00,
2013-02-26 05:45:00,14.4,9.6,30.00,NW,323,3.1,3.1,81,0.00,,---,0.00,VWS V14.01,2013-02-26 11:45:00,
2013-02-26 05:50:00,14.2,9.2,30.00,NE,37,3.1,3.1,80,0.00,,---,0.00,VWS V14.01,2013-02-26 11:50:00,
2013-02-26 05:55:00,14.4,9.3,30.00,NE,38,0.0,0.0,80,0.00,,---,0.00,VWS V14.01,2013-02-26 11:55:00,
2013-02-26 06:00:00,14.4,9.3,30.00,NNE,28,0.0,0.0,80,0.00,,---,0.00,VWS V14.01,2013-02-26 12:00:00,
2013-02-26 06:06:00,14.4,9.3,30.00,NNE,27,0.0,0.0,80,0.00,,---,0.00,VWS V14.01,2013-02-26 12:06:00,
2013-02-26 06:11:00,14.4,9.3,30.00,North,357,0.0,0.0,80,0.00,,---,0.00,VWS V14.01,2013-02-26 12:11:00,
2013-02-26 06:16:00,14.2,9.2,30.00,NE,43,3.6,4.0,80,0.00,,---,0.00,VWS V14.01,2013-02-26 12:16:00,
2013-02-26 06:21:00,14.2,8.9,30.00,NNE,33,3.6,4.0,79,0.00,,---,0.00,VWS V14.01,2013-02-26 12:21:00,
2013-02-26 06:27:00,14.0,9.0,30.00,NNE,17,2.2,2.7,80,0.00,,---,0.00,VWS V14.01,2013-02-26 12:27:00,
2013-02-26 06:32:00,14.0,9.0,30.00,North,5,0.0,4.0,80,0.00,,---,0.00,VWS V14.01,2013-02-26 12:32:00,
2013-02-26 06:37:00,14.0,9.0,30.00,North,353,4.0,4.9,80,0.00,,---,0.00,VWS V14.01,2013-02-26 12:37:00,
2013-02-26 06:42:00,13.8,8.8,30.00,NNE,18,0.0,2.2,80,0.00,,---,0.00,VWS V14.01,2013-02-26 12:42:00,
2013-02-26 06:48:00,13.6,8.6,30.00,NNE,32,3.6,3.6,80,0.00,,---,0.00,VWS V14.01,2013-02-26 12:48:00,
2013-02-26 06:53:00,13.6,8.6,30.00,NNE,31,0.0,0.0,80,0.00,,---,0.00,VWS V14.01,2013-02-26 12:53:00,
2013-02-26 06:58:00,13.6,8.6,30.00,North,0,2.7,2.7,80,0.00,,---,0.00,VWS V14.01,2013-02-26 12:58:00,
2013-02-26 07:03:00,13.6,8.6,30.00,NE,35,3.6,4.0,80,0.00,,---,0.00,VWS V14.01,2013-02-26 13:03:00,
2013-02-26 07:09:00,13.6,8.6,30.00,NE,36,0.0,0.0,80,0.00,,---,0.00,VWS V14.01,2013-02-26 13:09:00,
2013-02-26 07:14:00,13.8,8.8,30.00,NE,46,3.1,3.1,80,0.00,,---,0.00,VWS V14.01,2013-02-26 13:14:00,
2013-02-26 07:20:00,13.8,8.8,30.00,NE,46,0.0,0.0,80,0.00,,---,0.00,VWS V14.01,2013-02-26 13:20:00,
2013-02-26 07:25:00,14.0,9.0,30.00,NNE,22,2.2,2.2,80,0.00,,---,0.00,VWS V14.01,2013-02-26 13:25:00,
2013-02-26 07:31:00,13.8,8.8,30.03,NE,42,2.7,3.6,80,0.00,,---,0.00,VWS V14.01,2013-02-26 13:31:00,
2013-02-26 07:36:00,14.2,9.2,30.03,NNW,341,0.0,0.0,80,0.00,,---,0.00,VWS V14.01,2013-02-26 13:36:00,
2013-02-26 07:42:00,14.4,9.3,30.03,NNE,12,3.1,3.1,80,0.00,,---,0.00,VWS V14.01,2013-02-26 13:42:00,
2013-02-26 07:48:00,14.9,9.9,30.03,North,353,2.7,2.7,80,0.00,,---,0.00,VWS V14.01,2013-02-26 13:48:00,
2013-02-26 07:54:00,15.1,10.0,30.03,NNE,15,2.2,2.7,80,0.00,,---,0.00,VWS V14.01,2013-02-26 13:54:00,
2013-02-26 07:59:00,15.3,10.2,30.03,NNW,331,0.0,0.0,80,0.00,,---,0.00,VWS V14.01,2013-02-26 13:59:00,
2013-02-26 08:05:00,15.4,10.1,30.00,NNW,342,0.0,0.0,79,0.00,,---,0.00,VWS V14.01,2013-02-26 14:05:00,
2013-02-26 08:10:00,15.4,9.8,30.00,North,6,2.2,3.6,78,0.00,,---,0.00,VWS V14.01,2013-02-26 14:10:00,
2013-02-26 08:15:00,16.2,10.5,30.00,NE,42,0.0,0.0,78,0.00,,---,0.00,VWS V14.01,2013-02-26 14:15:00,
2013-02-26 08:21:00,16.2,10.2,30.00,North,7,2.7,2.7,77,0.00,,---,0.00,VWS V14.01,2013-02-26 14:21:00,
2013-02-26 08:26:00,16.2,9.6,30.00,NE,37,0.0,3.6,75,0.00,,---,0.00,VWS V14.01,2013-02-26 14:26:00,
2013-02-26 08:31:00,16.7,10.2,30.00,North,357,0.0,0.0,75,0.00,,---,0.00,VWS V14.01,2013-02-26 14:31:00,
2013-02-26 08:37:00,15.3,7.9,30.00,NE,45,3.6,4.0,72,0.00,,---,0.00,VWS V14.01,2013-02-26 14:37:00,
2013-02-26 08:42:00,15.4,8.4,30.00,NE,42,0.0,2.7,73,0.00,,---,0.00,VWS V14.01,2013-02-26 14:42:00,
2013-02-26 08:47:00,15.8,9.0,30.00,NE,37,0.0,3.1,74,0.00,,---,0.00,VWS V14.01,2013-02-26 14:47:00,
2013-02-26 08:52:00,15.3,8.2,30.00,NE,46,4.0,4.0,73,0.00,,---,0.00,VWS V14.01,2013-02-26 14:52:00,
2013-02-26 08:58:00,15.4,8.4,30.00,NNE,33,0.0,0.0,73,0.00,,---,0.00,VWS V14.01,2013-02-26 14:58:00,
2013-02-26 09:03:00,16.2,9.4,30.00,North,357,0.0,2.7,74,0.00,,---,0.00,VWS V14.01,2013-02-26 15:03:00,
2013-02-26 09:08:00,16.7,10.2,30.00,North,1,0.0,0.0,75,0.00,,---,0.00,VWS V14.01,2013-02-26 15:08:00,
2013-02-26 09:13:00,16.7,9.9,30.00,NNE,29,3.1,3.1,74,0.00,,---,0.00,VWS V14.01,2013-02-26 15:13:00,
2013-02-26 09:18:00,16.7,9.3,30.00,NNE,19,0.0,4.0,72,0.00,,---,0.00,VWS V14.01,2013-02-26 15:18:00,
2013-02-26 09:23:00,17.1,9.9,30.00,NNE,21,2.7,3.1,73,0.00,,---,0.00,VWS V14.01,2013-02-26 15:23:00,
2013-02-26 09:29:00,16.9,9.4,30.00,NE,35,5.4,5.4,72,0.00,,---,0.00,VWS V14.01,2013-02-26 15:29:00,
2013-02-26 09:35:00,17.6,10.7,30.00,NE,49,4.0,4.0,74,0.00,,---,0.00,VWS V14.01,2013-02-26 15:35:00,
2013-02-26 09:41:00,18.7,11.5,30.00,NE,51,3.1,3.1,73,0.00,,---,0.00,VWS V14.01,2013-02-26 15:41:00,
2013-02-26 09:47:00,20.3,12.4,30.00,NE,44,3.6,3.6,71,0.00,,---,0.00,VWS V14.01,2013-02-26 15:47:00,
2013-02-26 09:52:00,21.2,12.0,30.00,NE,48,2.7,2.7,67,0.00,,---,0.00,VWS V14.01,2013-02-26 15:52:00,
2013-02-26 09:58:00,21.7,11.4,30.00,North,357,0.0,0.0,64,0.00,,---,0.00,VWS V14.01,2013-02-26 15:58:00,
2013-02-26 10:03:00,22.6,12.0,30.00,North,357,2.7,2.7,63,0.00,,---,0.00,VWS V14.01,2013-02-26 16:03:00,
2013-02-26 10:09:00,23.2,11.4,30.00,NNE,18,0.0,0.0,60,0.00,,---,0.00,VWS V14.01,2013-02-26 16:09:00,
2013-02-26 10:14:00,23.4,11.2,30.00,NNE,30,0.0,0.0,59,0.00,,---,0.00,VWS V14.01,2013-02-26 16:14:00,
2013-02-26 10:19:00,24.3,12.4,30.00,North,349,0.0,0.0,60,0.00,,---,0.00,VWS V14.01,2013-02-26 16:19:00,
2013-02-26 10:25:00,25.2,12.9,30.00,North,353,0.0,0.0,59,0.00,,---,0.00,VWS V14.01,2013-02-26 16:25:00,
2013-02-26 10:30:00,25.2,12.1,30.00,NE,40,0.0,0.0,57,0.00,,---,0.00,VWS V14.01,2013-02-26 16:30:00,
2013-02-26 10:36:00,25.9,12.8,30.00,NE,40,0.0,0.0,57,0.00,,---,0.00,VWS V14.01,2013-02-26 16:36:00,
2013-02-26 10:41:00,27.3,13.7,30.00,NE,40,0.0,0.0,56,0.00,,---,0.00,VWS V14.01,2013-02-26 16:41:00,
2013-02-26 10:47:00,28.4,13.9,30.00,NE,40,0.0,0.0,54,0.00,,---,0.00,VWS V14.01,2013-02-26 16:47:00,
2013-02-26 10:53:00,28.9,14.4,30.00,NE,41,0.0,0.0,54,0.00,,---,0.00,VWS V14.01,2013-02-26 16:53:00,
2013-02-26 10:58:00,29.3,14.7,30.00,NE,41,0.0,0.0,54,0.00,,---,0.00,VWS V14.01,2013-02-26 16:58:00,
2013-02-26 11:04:00,29.8,14.8,30.00,NE,41,0.0,0.0,53,0.00,,---,0.00,VWS V14.01,2013-02-26 17:04:00,
2013-02-26 11:10:00,29.8,14.8,30.00,NE,41,0.0,0.0,53,0.00,,---,0.00,VWS V14.01,2013-02-26 17:10:00,
2013-02-26 11:15:00,30.6,15.9,30.00,NE,41,0.0,0.0,54,0.00,,---,0.00,VWS V14.01,2013-02-26 17:15:00,
2013-02-26 11:20:00,32.0,15.9,30.00,NE,40,0.0,0.0,51,0.00,,---,0.00,VWS V14.01,2013-02-26 17:20:00,
2013-02-26 11:26:00,32.2,16.1,30.00,NE,41,0.0,0.0,51,0.00,,---,0.00,VWS V14.01,2013-02-26 17:26:00,
2013-02-26 11:32:00,33.6,17.4,30.00,WNW,297,0.0,0.0,51,0.00,,---,0.00,VWS V14.01,2013-02-26 17:32:00,
2013-02-26 11:37:00,34.3,18.1,30.00,WNW,298,0.0,0.0,51,0.00,,---,0.00,VWS V14.01,2013-02-26 17:37:00,
2013-02-26 11:43:00,34.3,16.2,30.00,NE,42,0.0,0.0,47,0.00,,---,0.00,VWS V14.01,2013-02-26 17:43:00,
2013-02-26 11:49:00,34.2,17.0,30.00,NE,42,0.0,0.0,49,0.00,,---,0.00,VWS V14.01,2013-02-26 17:49:00,
2013-02-26 11:55:00,34.0,15.9,30.00,NNW,331,2.7,3.1,47,0.00,,---,0.00,VWS V14.01,2013-02-26 17:55:00,
2013-02-26 12:00:00,34.2,16.5,30.00,North,3,2.2,2.2,48,0.00,,---,0.00,VWS V14.01,2013-02-26 18:00:00,
2013-02-26 12:05:00,34.3,16.2,30.00,North,353,0.0,0.0,47,0.00,,---,0.00,VWS V14.01,2013-02-26 18:05:00,
2013-02-26 12:11:00,34.7,16.5,30.00,North,0,0.0,0.0,47,0.00,,---,0.00,VWS V14.01,2013-02-26 18:11:00,
2013-02-26 12:17:00,35.2,17.5,30.00,NNW,334,0.0,0.0,48,0.00,,---,0.00,VWS V14.01,2013-02-26 18:17:00,
2013-02-26 12:23:00,35.8,16.5,30.00,NNW,335,4.0,4.0,45,0.00,,---,0.00,VWS V14.01,2013-02-26 18:23:00,
2013-02-26 12:28:00,35.4,16.7,30.00,North,353,4.0,4.0,46,0.00,,---,0.00,VWS V14.01,2013-02-26 18:28:00,
2013-02-26 12:34:00,35.4,16.7,30.00,NNE,15,4.0,4.9,46,0.00,,---,0.00,VWS V14.01,2013-02-26 18:34:00,
2013-02-26 12:39:00,35.4,16.7,30.00,North,353,0.0,2.7,46,0.00,,---,0.00,VWS V14.01,2013-02-26 18:39:00,
2013-02-26 12:45:00,35.4,17.2,29.97,NE,34,4.0,4.9,47,0.00,,---,0.00,VWS V14.01,2013-02-26 18:45:00,
2013-02-26 12:50:00,35.1,17.8,29.97,NE,42,4.9,5.4,49,0.00,,---,0.00,VWS V14.01,2013-02-26 18:50:00,
2013-02-26 12:56:00,32.7,17.0,29.97,ENE,72,7.6,7.6,52,0.00,,---,0.00,VWS V14.01,2013-02-26 18:56:00,
2013-02-26 13:01:00,31.8,17.5,29.97,East,79,5.8,9.2,55,0.00,,---,0.00,VWS V14.01,2013-02-26 19:01:00,
2013-02-26 13:06:00,31.6,17.3,29.97,ENE,64,8.1,8.1,55,0.00,,---,0.00,VWS V14.01,2013-02-26 19:06:00,
2013-02-26 13:11:00,31.8,17.5,29.97,ENE,63,6.3,11.0,55,0.00,,---,0.00,VWS V14.01,2013-02-26 19:11:00,
2013-02-26 13:17:00,32.0,17.7,29.97,NE,55,10.1,12.3,55,0.00,,---,0.00,VWS V14.01,2013-02-26 19:17:00,
2013-02-26 13:22:00,34.0,18.2,29.97,NE,45,8.7,11.0,52,0.00,,---,0.00,VWS V14.01,2013-02-26 19:22:00,
2013-02-26 13:27:00,33.6,17.9,29.97,NNE,21,10.1,12.8,52,0.00,,---,0.00,VWS V14.01,2013-02-26 19:27:00,
2013-02-26 13:32:00,34.3,18.1,29.97,NE,44,9.2,9.2,51,0.00,,---,0.00,VWS V14.01,2013-02-26 19:32:00,
2013-02-26 13:38:00,35.1,18.8,29.97,NE,54,8.7,10.1,51,0.00,,---,0.00,VWS V14.01,2013-02-26 19:38:00,
2013-02-26 13:43:00,32.9,17.2,29.94,NE,43,12.8,12.8,52,0.00,,---,0.00,VWS V14.01,2013-02-26 19:43:00,
2013-02-26 13:49:00,33.1,17.8,29.94,ENE,68,7.6,11.0,53,0.00,,---,0.00,VWS V14.01,2013-02-26 19:49:00,
2013-02-26 13:55:00,33.1,17.8,29.94,ENE,57,10.1,10.1,53,0.00,,---,0.00,VWS V14.01,2013-02-26 19:55:00,
2013-02-26 14:01:00,32.7,17.0,29.94,ENE,63,8.7,11.9,52,0.00,,---,0.00,VWS V14.01,2013-02-26 20:01:00,
2013-02-26 14:07:00,33.1,18.3,29.94,ENE,60,8.3,8.3,54,0.00,,---,0.00,VWS V14.01,2013-02-26 20:07:00,
2013-02-26 14:12:00,32.9,17.7,29.94,NE,52,12.8,12.8,53,0.00,,---,0.00,VWS V14.01,2013-02-26 20:12:00,
2013-02-26 14:18:00,33.1,17.4,29.94,NNE,23,12.8,15.4,52,0.00,,---,0.00,VWS V14.01,2013-02-26 20:18:00,
2013-02-26 14:23:00,33.1,17.4,29.94,ENE,65,9.6,14.1,52,0.00,,---,0.00,VWS V14.01,2013-02-26 20:23:00,
2013-02-26 14:28:00,32.4,17.1,29.94,ENE,60,7.6,8.7,53,0.00,,---,0.00,VWS V14.01,2013-02-26 20:28:00,
2013-02-26 14:33:00,32.9,17.2,29.94,ENE,60,7.6,7.6,52,0.00,,---,0.00,VWS V14.01,2013-02-26 20:33:00,
2013-02-26 14:38:00,33.1,17.4,29.94,East,97,3.6,5.4,52,0.00,,---,0.00,VWS V14.01,2013-02-26 20:38:00,
2013-02-26 14:43:00,32.7,17.0,29.94,ENE,67,4.0,4.9,52,0.00,,---,0.00,VWS V14.01,2013-02-26 20:43:00,
2013-02-26 14:49:00,32.7,17.0,29.94,NE,48,8.7,8.7,52,0.00,,---,0.00,VWS V14.01,2013-02-26 20:49:00,
2013-02-26 14:55:00,32.9,17.2,29.94,ENE,62,8.3,8.7,52,0.00,,---,0.00,VWS V14.01,2013-02-26 20:55:00,
2013-02-26 15:00:00,33.3,17.5,29.94,NE,44,7.2,7.2,52,0.00,,---,0.00,VWS V14.01,2013-02-26 21:00:00,
2013-02-26 15:05:00,33.3,17.1,29.94,ENE,60,6.3,8.3,51,0.00,,---,0.00,VWS V14.01,2013-02-26 21:05:00,
2013-02-26 15:10:00,34.2,17.5,29.94,NE,34,8.7,8.7,50,0.00,,---,0.00,VWS V14.01,2013-02-26 21:10:00,
2013-02-26 15:15:00,34.3,17.2,29.94,NNE,17,3.6,6.3,49,0.00,,---,0.00,VWS V14.01,2013-02-26 21:15:00,
2013-02-26 15:21:00,34.5,16.9,29.94,NE,34,8.3,8.3,48,0.00,,---,0.00,VWS V14.01,2013-02-26 21:21:00,
2013-02-26 15:26:00,34.3,17.6,29.94,NE,39,7.6,7.6,50,0.00,,---,0.00,VWS V14.01,2013-02-26 21:26:00,
2013-02-26 15:32:00,34.2,17.0,29.94,NNW,339,4.0,5.8,49,0.00,,---,0.00,VWS V14.01,2013-02-26 21:32:00,
2013-02-26 15:37:00,34.5,16.9,29.94,NW,308,8.3,8.3,48,0.00,,---,0.00,VWS V14.01,2013-02-26 21:37:00,
2013-02-26 15:42:00,34.7,17.0,29.94,NNW,336,5.4,5.8,48,0.00,,---,0.00,VWS V14.01,2013-02-26 21:42:00,
2013-02-26 15:47:00,34.9,16.7,29.94,NW,315,5.4,5.8,47,0.00,,---,0.00,VWS V14.01,2013-02-26 21:47:00,
2013-02-26 15:53:00,34.9,16.7,29.94,NW,323,7.6,8.3,47,0.00,,---,0.00,VWS V14.01,2013-02-26 21:53:00,
2013-02-26 15:58:00,34.7,16.5,29.94,North,357,2.7,3.1,47,0.00,,---,0.00,VWS V14.01,2013-02-26 21:58:00,
2013-02-26 16:03:00,34.9,16.7,29.94,NNW,334,0.0,4.0,47,0.00,,---,0.00,VWS V14.01,2013-02-26 22:03:00,
2013-02-26 16:09:00,34.7,16.5,29.94,North,357,2.7,5.8,47,0.00,,---,0.00,VWS V14.01,2013-02-26 22:09:00,
2013-02-26 16:15:00,34.2,16.0,29.91,North,357,0.0,0.0,47,0.00,,---,0.00,VWS V14.01,2013-02-26 22:15:00,
2013-02-26 16:20:00,34.3,16.2,29.91,NNW,345,4.9,7.6,47,0.00,,---,0.00,VWS V14.01,2013-02-26 22:20:00,
2013-02-26 16:25:00,34.3,16.2,29.91,NNE,30,3.6,4.9,47,0.00,,---,0.00,VWS V14.01,2013-02-26 22:25:00,
2013-02-26 16:30:00,34.3,16.2,29.91,NNE,18,3.6,5.8,47,0.00,,---,0.00,VWS V14.01,2013-02-26 22:30:00,
2013-02-26 16:35:00,34.2,16.0,29.91,NNE,27,5.4,5.4,47,0.00,,---,0.00,VWS V14.01,2013-02-26 22:35:00,
2013-02-26 16:40:00,33.8,16.2,29.91,NNE,24,5.8,7.6,48,0.00,,---,0.00,VWS V14.01,2013-02-26 22:40:00,
2013-02-26 16:46:00,33.8,16.2,29.91,NNW,344,5.4,5.4,48,0.00,,---,0.00,VWS V14.01,2013-02-26 22:46:00,
2013-02-26 16:51:00,33.8,16.2,29.91,North,349,7.2,8.3,48,0.00,,---,0.00,VWS V14.01,2013-02-26 22:51:00,
2013-02-26 16:56:00,33.8,16.2,29.91,North,10,7.2,7.2,48,0.00,,---,0.00,VWS V14.01,2013-02-26 22:56:00,
2013-02-26 17:01:00,33.8,16.2,29.91,North,11,3.1,6.3,48,0.00,,---,0.00,VWS V14.01,2013-02-26 23:01:00,
2013-02-26 17:07:00,33.6,16.0,29.91,North,0,5.8,5.8,48,0.00,,---,0.00,VWS V14.01,2013-02-26 23:07:00,
2013-02-26 17:12:00,33.3,16.2,29.91,NW,325,5.8,5.8,49,0.00,,---,0.00,VWS V14.01,2013-02-26 23:12:00,
2013-02-26 17:17:00,33.1,16.0,29.91,NW,325,3.6,3.6,49,0.00,,---,0.00,VWS V14.01,2013-02-26 23:17:00,
2013-02-26 17:23:00,32.7,15.7,29.91,North,8,3.1,4.0,49,0.00,,---,0.00,VWS V14.01,2013-02-26 23:23:00,
2013-02-26 17:29:00,32.2,15.6,29.91,North,9,4.0,5.4,50,0.00,,---,0.00,VWS V14.01,2013-02-26 23:29:00,
2013-02-26 17:34:00,31.8,15.3,29.91,North,357,3.1,5.4,50,0.00,,---,0.00,VWS V14.01,2013-02-26 23:34:00,
2013-02-26 17:40:00,31.3,14.8,29.91,North,353,2.7,5.4,50,0.00,,---,0.00,VWS V14.01,2013-02-26 23:40:00,
2013-02-26 17:46:00,31.1,15.1,29.91,NNW,345,2.7,4.9,51,0.00,,---,0.00,VWS V14.01,2013-02-26 23:46:00,
2013-02-26 17:51:00,30.6,14.6,29.91,North,0,3.6,4.9,51,0.00,,---,0.00,VWS V14.01,2013-02-26 23:51:00,
2013-02-26 17:57:00,30.2,14.3,29.91,NNW,345,3.6,5.8,51,0.00,,---,0.00,VWS V14.01,2013-02-26 23:57:00,
2013-02-26 18:02:00,29.7,14.2,29.91,North,0,2.7,3.1,52,0.00,,---,0.00,VWS V14.01,2013-02-27 00:02:00,
2013-02-26 18:07:00,29.5,14.0,29.91,North,357,3.6,3.6,52,0.00,,---,0.00,VWS V14.01,2013-02-27 00:07:00,
2013-02-26 18:12:00,29.1,13.7,29.91,NNW,345,4.0,4.0,52,0.00,,---,0.00,VWS V14.01,2013-02-27 00:12:00,
2013-02-26 18:17:00,28.9,13.5,29.91,North,0,4.0,4.0,52,0.00,,---,0.00,VWS V14.01,2013-02-27 00:17:00,
2013-02-26 18:22:00,28.6,13.6,29.91,North,0,4.0,4.0,53,0.00,,---,0.00,VWS V14.01,2013-02-27 00:22:00,
2013-02-26 18:28:00,28.4,13.5,29.91,North,0,3.1,3.1,53,0.00,,---,0.00,VWS V14.01,2013-02-27 00:28:00,
2013-02-26 18:33:00,28.2,13.3,29.91,North,5,2.7,3.1,53,0.00,,---,0.00,VWS V14.01,2013-02-27 00:33:00,
2013-02-26 18:39:00,27.9,13.0,29.91,North,7,4.0,4.0,53,0.00,,---,0.00,VWS V14.01,2013-02-27 00:39:00,
2013-02-26 18:45:00,27.3,12.9,29.94,North,7,3.1,3.1,54,0.00,,---,0.00,VWS V14.01,2013-02-27 00:45:00,
2013-02-26 18:50:00,27.0,12.6,29.94,NNE,12,2.7,3.6,54,0.00,,---,0.00,VWS V14.01,2013-02-27 00:50:00,
2013-02-26 18:56:00,26.8,12.4,29.94,North,11,3.1,3.1,54,0.00,,---,0.00,VWS V14.01,2013-02-27 00:56:00,
2013-02-26 19:02:00,26.4,12.5,29.94,North,11,2.7,3.1,55,0.00,,---,0.00,VWS V14.01,2013-02-27 01:02:00,
2013-02-26 19:08:00,26.2,12.3,29.94,North,11,2.7,2.7,55,0.00,,---,0.00,VWS V14.01,2013-02-27 01:08:00,
2013-02-26 19:13:00,26.1,12.5,29.94,NNE,17,3.1,3.6,56,0.00,,---,0.00,VWS V14.01,2013-02-27 01:13:00,
2013-02-26 19:18:00,26.1,12.5,29.94,North,8,2.2,3.6,56,0.00,,---,0.00,VWS V14.01,2013-02-27 01:18:00,
2013-02-26 19:24:00,25.7,12.2,29.94,North,357,3.1,3.1,56,0.00,,---,0.00,VWS V14.01,2013-02-27 01:24:00,
2013-02-26 19:29:00,25.5,12.0,29.94,North,357,2.7,3.6,56,0.00,,---,0.00,VWS V14.01,2013-02-27 01:29:00,
2013-02-26 19:34:00,25.7,12.6,29.94,North,357,3.6,3.6,57,0.00,,---,0.00,VWS V14.01,2013-02-27 01:34:00,
2013-02-26 19:39:00,25.5,12.4,29.94,North,357,0.0,0.0,57,0.00,,---,0.00,VWS V14.01,2013-02-27 01:39:00,
2013-02-26 19:44:00,25.2,12.1,29.94,North,357,0.0,0.0,57,0.00,,---,0.00,VWS V14.01,2013-02-27 01:44:00,
2013-02-26 19:50:00,24.8,11.7,29.94,North,357,0.0,0.0,57,0.00,,---,0.00,VWS V14.01,2013-02-27 01:50:00,
2013-02-26 19:55:00,24.8,12.1,29.94,North,357,4.0,4.0,58,0.00,,---,0.00,VWS V14.01,2013-02-27 01:55:00,
2013-02-26 20:00:00,25.0,12.3,29.94,North,357,3.1,3.6,58,0.00,,---,0.00,VWS V14.01,2013-02-27 02:00:00,
2013-02-26 20:06:00,24.3,11.6,29.94,North,357,0.0,0.0,58,0.00,,---,0.00,VWS V14.01,2013-02-27 02:06:00,
2013-02-26 20:12:00,23.5,10.9,29.94,North,357,0.0,0.0,58,0.00,,---,0.00,VWS V14.01,2013-02-27 02:12:00,
2013-02-26 20:18:00,23.2,11.0,29.94,North,357,3.6,4.0,59,0.00,,---,0.00,VWS V14.01,2013-02-27 02:18:00,
2013-02-26 20:24:00,23.2,11.0,29.94,North,357,2.7,2.7,59,0.00,,---,0.00,VWS V14.01,2013-02-27 02:24:00,
2013-02-26 20:29:00,23.5,11.7,29.94,North,353,4.0,4.0,60,0.00,,---,0.00,VWS V14.01,2013-02-27 02:29:00,
2013-02-26 20:34:00,23.7,11.9,29.94,North,353,3.1,4.9,60,0.00,,---,0.00,VWS V14.01,2013-02-27 02:34:00,
2013-02-26 20:39:00,24.3,12.8,29.94,North,9,0.0,3.6,61,0.00,,---,0.00,VWS V14.01,2013-02-27 02:39:00,
2013-02-26 20:45:00,24.4,12.9,29.94,NNE,21,3.6,4.0,61,0.00,,---,0.00,VWS V14.01,2013-02-27 02:45:00,
2013-02-26 20:50:00,24.4,12.9,29.94,North,5,2.2,4.5,61,0.00,,---,0.00,VWS V14.01,2013-02-27 02:50:00,
2013-02-26 20:55:00,24.1,12.6,29.94,North,353,4.0,4.0,61,0.00,,---,0.00,VWS V14.01,2013-02-27 02:55:00,
2013-02-26 21:00:00,24.4,12.9,29.94,North,4,2.7,5.4,61,0.00,,---,0.00,VWS V14.01,2013-02-27 03:00:00,
2013-02-26 21:06:00,24.8,13.3,29.94,NNE,22,4.0,5.4,61,0.00,,---,0.00,VWS V14.01,2013-02-27 03:06:00,
2013-02-26 21:11:00,24.4,12.9,29.94,North,7,6.3,6.3,61,0.00,,---,0.00,VWS V14.01,2013-02-27 03:11:00,
2013-02-26 21:17:00,24.3,12.4,29.94,North,353,0.0,2.7,60,0.00,,---,0.00,VWS V14.01,2013-02-27 03:17:00,
2013-02-26 21:23:00,23.5,11.7,29.94,North,357,0.0,0.0,60,0.00,,---,0.00,VWS V14.01,2013-02-27 03:23:00,
2013-02-26 21:28:00,22.8,11.0,29.94,North,357,0.0,0.0,60,0.00,,---,0.00,VWS V14.01,2013-02-27 03:28:00,
2013-02-26 21:34:00,22.8,11.4,29.94,North,357,0.0,0.0,61,0.00,,---,0.00,VWS V14.01,2013-02-27 03:34:00,
2013-02-26 21:39:00,22.8,11.4,29.94,North,357,0.0,0.0,61,0.00,,---,0.00,VWS V14.01,2013-02-27 03:39:00,
2013-02-26 21:44:00,22.5,11.1,29.94,NNE,18,0.0,0.0,61,0.00,,---,0.00,VWS V14.01,2013-02-27 03:44:00,
2013-02-26 21:49:00,22.5,11.1,29.94,NNE,18,0.0,0.0,61,0.00,,---,0.00,VWS V14.01,2013-02-27 03:49:00,
2013-02-26 21:55:00,22.6,11.2,29.94,NNE,18,0.0,0.0,61,0.00,,---,0.00,VWS V14.01,2013-02-27 03:55:00,
2013-02-26 22:00:00,22.6,11.6,29.94,NNE,12,3.1,3.1,62,0.00,,---,0.00,VWS V14.01,2013-02-27 04:00:00,
2013-02-26 22:05:00,22.8,11.8,29.94,NNE,21,3.1,3.1,62,0.00,,---,0.00,VWS V14.01,2013-02-27 04:05:00,
2013-02-26 22:10:00,22.8,11.8,29.94,NNE,29,2.7,2.7,62,0.00,,---,0.00,VWS V14.01,2013-02-27 04:10:00,
2013-02-26 22:16:00,22.6,11.6,29.94,NNE,18,0.0,2.7,62,0.00,,---,0.00,VWS V14.01,2013-02-27 04:16:00,
2013-02-26 22:21:00,22.8,12.1,29.94,North,4,3.6,4.5,63,0.00,,---,0.00,VWS V14.01,2013-02-27 04:21:00,
2013-02-26 22:26:00,22.6,11.6,29.94,North,2,2.2,3.1,62,0.00,,---,0.00,VWS V14.01,2013-02-27 04:26:00,
2013-02-26 22:31:00,22.5,11.4,29.94,North,0,2.7,4.0,62,0.00,,---,0.00,VWS V14.01,2013-02-27 04:31:00,
2013-02-26 22:37:00,22.5,11.8,29.94,NNW,348,5.8,5.8,63,0.00,,---,0.00,VWS V14.01,2013-02-27 04:37:00,
2013-02-26 22:42:00,22.8,12.1,29.94,North,353,4.0,4.0,63,0.00,,---,0.00,VWS V14.01,2013-02-27 04:42:00,
2013-02-26 22:48:00,23.4,12.6,29.94,North,357,5.4,5.8,63,0.00,,---,0.00,VWS V14.01,2013-02-27 04:48:00,
2013-02-26 22:54:00,23.7,13.0,29.94,North,0,5.4,6.3,63,0.00,,---,0.00,VWS V14.01,2013-02-27 04:54:00,
2013-02-26 22:59:00,23.9,13.1,29.94,North,350,2.7,6.3,63,0.00,,---,0.00,VWS V14.01,2013-02-27 04:59:00,
2013-02-26 23:01:00,23.9,13.1,29.94,NNW,343,5.4,5.8,63,0.00,,---,0.00,VWS V14.01,2013-02-27 05:01:00,
2013-02-26 23:03:00,23.9,13.1,29.94,North,353,3.6,6.3,63,0.00,,---,0.00,VWS V14.01,2013-02-27 05:03:00,
2013-02-26 23:08:00,23.9,13.1,29.94,North,353,5.4,6.3,63,0.00,,---,0.00,VWS V14.01,2013-02-27 05:08:00,
2013-02-26 23:13:00,24.1,13.3,29.94,North,357,6.3,6.3,63,0.00,,---,0.00,VWS V14.01,2013-02-27 05:13:00,
2013-02-26 23:18:00,24.3,13.1,29.94,NNW,334,6.3,7.2,62,0.00,,---,0.00,VWS V14.01,2013-02-27 05:18:00,
2013-02-26 23:24:00,24.4,13.3,29.94,North,353,5.4,7.6,62,0.00,,---,0.00,VWS V14.01,2013-02-27 05:24:00,
2013-02-26 23:29:00,24.6,13.1,29.94,North,8,5.4,8.1,61,0.00,,---,0.00,VWS V14.01,2013-02-27 05:29:00,
2013-02-26 23:31:00,24.8,13.3,29.94,NNW,346,5.8,7.6,61,0.00,,---,0.00,VWS V14.01,2013-02-27 05:31:00,
2013-02-26 23:37:00,24.8,12.9,29.94,NNW,334,5.4,7.2,60,0.00,,---,0.00,VWS V14.01,2013-02-27 05:37:00,
2013-02-26 23:42:00,25.0,12.7,29.94,NNW,339,5.8,8.1,59,0.00,,---,0.00,VWS V14.01,2013-02-27 05:42:00,
2013-02-26 23:48:00,25.0,12.7,29.94,North,353,4.0,5.4,59,0.00,,---,0.00,VWS V14.01,2013-02-27 05:48:00,
2013-02-26 23:53:00,24.8,12.5,29.94,North,353,5.4,5.4,59,0.00,,---,0.00,VWS V14.01,2013-02-27 05:53:00,
2013-02-26 23:58:00,24.8,12.5,29.94,North,353,5.8,8.3,59,0.00,,---,0.00,VWS V14.01,2013-02-27 05:58:00,